YUZGU 8 (53306 NORAD) Tracking and Keplerian Element Data

This shows tracking and keplerian element data for the satellite.

Feedback or suggestion? Click here.




ElementValue
Catalog53306
NameYUZGU 8
Epoch Orbit1908
Epoch Day325.14785777
Epoch Year2022
RAAN273.4299
Inclination51.6366
Eccentricity0.0008659
Argument of Perigee105.6671
Mean Anonmoly254.5281
Mean Motion15.66534141
Decay Rate0.00106549
L11 53306U 98067TR 22325.14785777 .00106549 00000+0 99068-3 0 9996
L22 53306 51.6366 273.4299 0008659 105.6671 254.5281 15.66534141 19087



Live tracking and technical data element details for YUZGU 8 (NORAD 53306). YUZGU 8 can be tracked NOW for your location showing map with azimuth and elevation plus other details from your city location.







IsCatalogInMostPopularTable: catalog: 53306, numindb: 8
Update: records affected: 1



GetName: 53306 YUZGU 8

Hit Count: updated at: Tue, 29 Nov 2022 02:08:25 GMT